Location: Laas
(43.4693°N, 0.3073°E)
Time: 16:06:39
(UTC+00:00)

Aureole 3 - Pass Details

Date: 25 October 2020
Orbit: 382 x 1232 km, 82.5° (Epoch: 23 November)

Event Time Altitude Azimuth Distance (km) Brightness Sun altitude
Rises 17:26:50 0° 152° (SSE) 2,526 6.5 -5.7°
Reaches altitude 10° 17:29:36 10° 130° (SE) 1,544 5.2 -6.2°
Maximum altitude 17:31:38 16° 91° (E) 1,191 4.4 -6.5°
Drops below altitude 10° 17:33:34 10° 52° (NE) 1,446 4.9 -6.9°
Sets 17:36:02 0° 28° (NNE) 2,276 6.1 -7.3°
